Location: Newark
(39.6889°N, 28.1522°E)
Time: 23:21:07
(UTC+00:00)

Tiangong 2 - Visible Passes

Search period start: 20 March 2019 00:00
Search period end: 30 March 2019 00:00
Orbit: 379 x 390 km, 42.8° (Epoch: 20 March)

Date Brightness Start Highest point End Pass type
(mag) Time Alt. Az. Time Alt. Az. Time Alt. Az.
20 Mar 3.4 01:59:24 25° ENE 01:59:24 25° ENE 02:00:58 10° E visible
20 Mar 1.1 03:31:37 10° WNW 03:34:44 71° SSW 03:37:54 10° ESE visible
21 Mar 1.0 02:35:01 69° NNW 02:35:15 76° NNE 02:38:27 10° ESE visible
22 Mar 4.4 01:38:28 13° E 01:38:28 13° E 01:38:51 10° E visible
22 Mar 1.6 03:10:42 21° W 03:12:27 41° SSW 03:15:29 10° SE visible
23 Mar 2.5 02:14:18 32° SE 02:14:18 32° SE 02:16:11 10° ESE visible
24 Mar 2.4 02:50:17 24° SSW 02:50:17 24° SSW 02:52:42 10° SSE visible
29 Mar 2.8 17:37:10 10° SSW 17:39:02 18° SSE 17:39:02 18° SSE visible
